Regional Weather Roundup
Issued by NWS Sioux Falls, SD

Home | Current Version | Previous Version | Graphics & Text | Print | Product List | Glossary Off
Versions: 1 2 3 4 5 6 7 8 9 10 11 12 13 14 15 16 17 18 19 20 21 22 23 24 25 26 27 28 29 30 31 32 33 34 35 36 37 38 39 40 41 42 43 44 45 46 47 48 49 50

409
ASUS43 KFSD 302210
RWRFSD

WEATHER ROUNDUP FOR SE SOUTH DAKOTA/SW MINNESOTA/NW IOWA
NATIONAL WEATHER SERVICE SIOUX FALLS SD
500 PM CDT SAT APR 30 2016

NOTE: "FAIR" INDICATES FEW OR NO CLOUDS BELOW 12,000 FEET WITH NO
SIGNIFICANT WEATHER AND OR OBSTRUCTIONS TO VISIBILITY.


SDZ038>040-050-052>070-302300-
SOUTHEAST SOUTH DAKOTA

CITY           SKY/WX    TMP DP  RH WIND       PRES   REMARKS
BROOKINGS      CLOUDY    50  35  56 NE17G28   29.98R
CHAMBERLAIN    LGT RAIN  46  43  90 NE18G28   30.00R
HURON          CLOUDY    51  36  56 NE17G29   30.02R
MADISON        LGT RAIN  45  45 100 E24G30    29.97R
MITCHELL       LGT RAIN  46  42  86 NE18      29.99R
SIOUX FALLS    CLOUDY    45  39  79 E24G31    29.95R
WINNER         LGT RAIN  43  39  86 NE29G36   29.98S FOG
YANKTON        CLOUDY    45  41  87 NE23G30   29.88R
$$

MNZ071-072-080-081-089-090-097-098-302300-
SOUTHWEST MINNESOTA

CITY           SKY/WX    TMP DP  RH WIND       PRES   REMARKS
FAIRMONT       CLOUDY    43  32  65 NE21      29.98R
JACKSON        LGT SNOW  43  39  87 NE32G40   29.95S
LUVERNE        RAIN      43  37  81 E25G35    29.93S
MARSHALL       CLOUDY    53  37  54 E18       30.00S
MONTEVIDEO     CLOUDY    57  36  44 E18       30.04S
REDWOOD FALLS  CLOUDY    54  34  46 E14G24    30.01S
TRACY          RAIN      47  41  79 E17G23    30.00R
WINDOM         LGT RAIN  45  41  87 E23       29.98S
WORTHINGTON    LGT RAIN  43  39  86 E29G35    29.95R
$$

IAZ001>003-012>014-020>022-031-032-NEZ013-014-SDZ071-302300-
NORTHWEST IOWA

CITY           SKY/WX    TMP DP  RH WIND       PRES   REMARKS
CHEROKEE       CLOUDY    45  43  94 E23G33    29.88R
DENISON        CLOUDY    46  46 100 E21G29    29.80R FOG
ESTHERVILLE    LGT RAIN  43  41  93 NE32G41   29.93R
LE MARS        CLOUDY    46  43  87 E16G28    29.88R
ORANGE CITY    CLOUDY    45  43  93 E17G29    29.89R
SHELDON        CLOUDY    45  43  93 E28G36    29.89R
SIOUX CITY     LGT RAIN  48  43  82 E24G31    29.84R
SPENCER        CLOUDY    44  40  85 E29G44    29.92R
STORM LAKE     CLOUDY    45  43  93 E32G43    29.86R
$$

ABBREVIATIONS USED IN REMARKS
   TC - TEMPERATURE IN CELSIUS
  WCI - WIND CHILL INDEX
   HX - HEAT INDEX
  VSB - VISIBILITY





USA.gov is the U.S. government's official web portal to all federal, state and local government web resources and services.